Change the Weather History Date:

Sunday, December 15, 2013

  Actual Average Record
Temperature  
Mean Temperature 24 °F 26 °F  
Max Temperature 34 °F 37 °F 64 °F (2002)
Min Temperature 14 °F 16 °F -15 °F (1989)
Degree Days  
Heating Degree Days 41 39  
Month to date heating degree days 688 548  
Since 1 July heating degree days 1985 1809  
Cooling Degree Days 0 0  
Month to date cooling degree days 0 0  
Year to date cooling degree days 1236 1173  
Moisture  
Dew Point 18 °F    
Average Humidity 79    
Maximum Humidity 92    
Minimum Humidity 66    
Precipitation  
Precipitation 0.00 in 0.03 in 2.13 in (1984)
Month to date precipitation 0.20 0.52  
Year to date precipitation 26.69 28.52  
Snow  
Snow 0.00 in 0.20 in - ()
Month to date snowfall 5.4 2.8  
Since 1 July snowfall 5.6 5.6  
Snow Depth 1.00 in    
Sea Level Pressure  
Sea Level Pressure 30.07 in    
Wind  
Wind Speed 3 mph (NNE)    
Max Wind Speed 9 mph    
Max Gust Speed 11 mph    
Visibility 6 miles    
Events      
T = Trace of Precipitation, MM = Missing Value Source: NWS Daily Summary

Daily Weather History Graph

Daily Weather History Graph

Search for Another Location

Airport or City:

Trip Planner

Search our weather history database for the weather conditions in past years. The results will help you decide how hot, cold, wet, or windy it might be!

Date:

Astronomy

Dec. 15, 2013 Rise Set
Actual Time 7:44 AM CST 5:00 PM CST
Civil Twilight 7:13 AM CST 5:31 PM CST
Nautical Twilight 6:39 AM CST 6:05 PM CST
Astronomical Twilight 6:05 AM CST 6:39 PM CST
Moon 4:05 PM CST (12/15) 6:01 AM CST (12/15)
Length of Visible Light 10h 17m
Length of Day
9h 15m
Waxing Gibbous, 98% of the Moon is Illuminated
Dec 15
Waxing Gibbous
Dec 17
Full
Dec 25
Last Quarter
Jan 1
New
Jan 7
First Quarter

Hourly Weather History & Observations

Time (CST) Temp. Windchill Dew Point Humidity Pressure Visibility Wind Dir Wind Speed Gust Speed Precip Events Conditions
12:54 AM 17.1 °F 10.0 °F 14.0 °F 88% 30.20 in 7.0 mi East 4.6 mph - N/A   Overcast
1:54 AM 15.1 °F 9.4 °F 12.9 °F 91% 30.18 in 6.0 mi SSE 3.5 mph - N/A   Partly Cloudy
2:54 AM 19.0 °F 12.3 °F 16.0 °F 88% 30.16 in 7.0 mi SSE 4.6 mph - N/A   Overcast
3:54 AM 19.0 °F 13.9 °F 16.0 °F 88% 30.13 in 7.0 mi SSE 3.5 mph - N/A   Overcast
4:54 AM 19.9 °F - 16.0 °F 85% 30.11 in 6.0 mi Calm Calm - N/A   Overcast
5:54 AM 19.9 °F - 16.0 °F 85% 30.10 in 6.0 mi Calm Calm - N/A   Overcast
6:54 AM 17.1 °F - 14.0 °F 88% 30.09 in 6.0 mi Calm Calm - N/A   Clear
7:54 AM 16.0 °F 10.4 °F 12.9 °F 88% 30.11 in 4.0 mi WNW 3.5 mph - N/A   Clear
8:54 AM 17.1 °F - 12.9 °F 84% 30.11 in 5.0 mi Calm Calm - N/A   Clear
9:54 AM 23.0 °F - 18.0 °F 81% 30.12 in 5.0 mi Calm Calm - N/A   Haze
10:54 AM 26.1 °F 18.4 °F 19.9 °F 78% 30.13 in 6.0 mi North 6.9 mph - N/A   Haze
11:54 AM 30.0 °F - 21.0 °F 69% 30.09 in 8.0 mi Calm Calm - N/A   Clear
12:54 PM 32.0 °F 26.4 °F 23.0 °F 69% 30.06 in 8.0 mi North 5.8 mph - N/A   Mostly Cloudy
1:54 PM 32.0 °F - 23.0 °F 69% 30.05 in 7.0 mi Calm Calm - N/A   Overcast
2:54 PM 33.1 °F 30.0 °F 24.1 °F 70% 30.02 in 8.0 mi ESE 3.5 mph - N/A   Scattered Clouds
3:54 PM 32.0 °F 25.6 °F 25.0 °F 75% 30.02 in 7.0 mi NNE 6.9 mph - N/A   Overcast
4:54 PM 32.0 °F - 26.1 °F 79% 30.01 in 7.0 mi Calm Calm - N/A   Overcast
5:54 PM 28.0 °F 24.2 °F 24.1 °F 85% 30.01 in 7.0 mi NNE 3.5 mph - N/A   Partly Cloudy
6:54 PM 26.1 °F 20.5 °F 23.0 °F 88% 30.01 in 7.0 mi North 4.6 mph - N/A   Clear
7:54 PM 24.1 °F 17.0 °F 21.0 °F 88% 30.01 in 7.0 mi North 5.8 mph - N/A   Clear
8:54 PM 21.0 °F 11.4 °F 18.0 °F 88% 30.03 in 6.0 mi NNW 8.1 mph - N/A   Clear
9:54 PM 17.1 °F 10.0 °F 15.1 °F 92% 30.03 in 5.0 mi North 4.6 mph - N/A   Clear
10:54 PM 19.0 °F 12.3 °F 16.0 °F 88% 30.02 in 5.0 mi North 4.6 mph - N/A   Clear
11:54 PM 16.0 °F 7.4 °F 14.0 °F 92% 30.03 in 4.0 mi North 5.8 mph - N/A   Clear